#timestamp,LO_Frequency,Hit 
1504922415.5,286046999.8,N
1504922435.4,286047001.9,N
1504922455.2,286047002.0,N
1504922475.0,286047003.9,N
1504922475.9,286047003.9,N
1504922495.8,286047005.4,N
1504922515.6,286047001.3,N
1504922535.4,286047002.4,N
1504922555.3,286047004.8,N
1504922575.1,286047004.9,N
1504922576.0,286047004.9,N
1504922595.8,286047010.6,P
1504922615.7,286047002.4,N
1504922635.5,286047006.0,N
1504922655.3,286047005.0,N
1504922675.1,286047006.8,N
1504922695.9,286047004.1,N
1504922715.7,286047003.3,N
1504922735.5,286047003.8,N
1504922755.4,286047001.5,N
1504922775.2,286047002.7,N
1504922795.0,286047005.4,N
1504922795.9,286047005.4,N
1504922815.8,286047006.1,N
1504922835.6,286047005.3,N
1504922855.4,286047004.2,N
1504922875.3,286046999.9,N
1504922895.1,286047001.0,N
1504922896.0,286047001.0,N
1504922915.8,286046998.1,N
1504922935.7,286047002.1,N
1504922955.5,286047002.1,N
1504922975.3,286047000.8,N
1504922995.1,286046999.5,N
1504923015.9,286046996.7,N
1504923035.7,286046996.7,N
1504923055.5,286046998.9,N
1504923075.4,286047000.7,N
1504923095.2,286046999.3,N
1504923115.0,286046998.3,N
1504923115.9,286046998.3,N
1504923135.8,286046998.2,N
1504923155.6,286047002.3,N
1504923175.4,286047001.9,N
1504923195.3,286046999.7,N
1504923215.1,286047002.7,N
1504923216.0,286047002.7,N
1504923235.8,286047001.0,N
1504923255.7,286047003.2,N
1504923275.5,286047000.2,N
1504923295.3,286047001.9,N
1504923315.2,286046999.8,N
1504923335.9,286047002.0,N
1504923355.7,286047000.4,N
1504923375.5,286046999.7,N
1504923395.4,286047003.0,N
1504923415.2,286047001.8,N
1504923435.0,286047002.3,N
1504923435.9,286047002.3,N
1504923455.8,286047004.3,N
1504923475.6,286047001.3,N
1504923495.4,286047002.3,N
1504923515.3,286047002.7,N
1504923535.1,286047000.1,N
1504923536.0,286047000.1,N
1504923555.8,286047002.5,N
1504923575.7,286047003.7,N
1504923595.5,286047005.4,P
1504923615.3,286047003.2,N
1504923635.2,286047004.0,N
1504923655.9,286047002.0,N
1504923675.7,286047003.3,N
1504923695.6,286047006.2,P
1504923715.4,286047007.5,P
1504923735.2,286047003.0,N
1504923755.1,286047004.3,N
1504923756.0,286047004.3,N
1504923775.8,286047000.6,N
1504923795.6,286047004.3,N
1504923815.5,286047004.6,N
1504923835.3,286047007.7,P
1504923855.1,286047002.8,N
1504923875.9,286047001.1,N
1504923895.7,286046999.6,N
1504923915.5,286047001.0,N
1504923935.4,286046998.8,N
1504923955.2,286047002.5,N
1504923975.0,286046999.7,N
1504923975.9,286046999.7,N
1504923995.8,286047001.9,N
1504924015.6,286047002.9,N
1504924035.4,286047003.0,N
1504924055.3,286047002.4,N
1504924075.1,286047001.4,N
1504924076.0,286047001.4,N
1504924095.8,286047002.7,N
1504924115.7,286047004.7,N
1504924135.5,286047003.5,N
1504924155.3,286047004.0,N
1504924175.1,286047001.5,N
1504924195.9,286047001.9,N
1504924215.7,286047001.0,N
1504924235.5,286047003.0,N
1504924255.4,286047003.0,N
1504924275.2,286047004.0,N
1504924295.0,286047003.9,N
1504924295.9,286047003.9,N
1504924315.8,286047000.6,N
1504924335.6,286046998.9,N
1504924355.4,286046996.9,N
1504924375.3,286046996.9,N
1504924395.1,286046997.3,N
1504924396.0,286046997.3,N
1504924415.8,286046999.4,N
1504924435.7,286046998.6,N
1504924455.5,286047000.1,N
1504924475.3,286047000.4,N
1504924495.1,286046999.9,N
1504924515.9,286047000.5,N
1504924535.7,286046999.3,N
1504924555.5,286046996.7,N
1504924575.4,286047000.3,N
1504924595.2,286047002.0,N
1504924615.0,286047001.3,N
1504924615.9,286047001.3,N
1504924635.8,286046999.4,N
1504924655.6,286046996.7,N
1504924675.4,286046999.3,N
1504924695.3,286046996.8,N
1504924715.1,286046994.9,N
1504924716.0,286046994.9,N
1504924735.8,286046999.6,N
1504924755.7,286046999.8,N
1504924775.5,286047002.0,N
1504924795.3,286047000.5,N
1504924815.2,286047000.4,N
1504924835.9,286046998.2,N
1504924855.7,286047002.6,N
1504924875.6,286047004.3,N
1504924895.4,286047002.3,N
1504924915.2,286046999.7,N
1504924935.0,286047002.8,N
1504924935.9,286047002.8,N
1504924955.8,286047003.9,N
1504924975.6,286047007.6,P
1504924995.5,286047007.9,N
1504925015.3,286047006.6,N
1504925035.1,286047007.4,N
1504925055.8,286047004.1,N
1504925075.7,286047001.7,N
1504925095.5,286047000.0,N
1504925115.3,286047002.7,N
1504925135.2,286047002.1,N
1504925155.9,286047000.4,N
1504925175.7,286046998.1,N
1504925195.6,286046999.8,N
1504925215.4,286047001.0,N
1504925235.2,286047001.2,N
1504925255.1,286047001.0,N
1504925256.0,286047001.0,N
1504925275.8,286047000.8,N
1504925295.6,286047002.3,N
1504925315.5,286047001.4,N
1504925335.3,286047001.6,N
1504925355.1,286047002.1,N
1504925375.8,286047002.7,N
1504925395.7,286047004.1,N
1504925415.5,286047003.9,N
1504925435.3,286047003.8,N
1504925455.2,286047003.5,N
1504925475.9,286047001.6,N
1504925495.7,286047004.2,N
1504925515.6,286047003.0,N
1504925535.4,286047004.1,N
1504925555.2,286047001.8,N
1504925575.1,286047000.9,N
1504925576.0,286047000.9,N
1504925595.8,286047000.1,N
1504925615.6,286047001.7,N
1504925635.5,286047004.4,P
1504925655.3,286047004.3,P
1504925675.1,286047002.7,N
1504925695.9,286047000.2,N
1504925715.7,286047004.4,N
1504925735.5,286047005.1,P
1504925755.4,286047001.1,N
1504925775.2,286047000.5,N
1504925795.0,286047000.3,N
1504925795.9,286047000.3,N
1504925815.8,286047000.5,N
1504925835.6,286046998.5,N
1504925855.4,286046997.7,N
1504925875.3,286046999.5,N
1504925895.1,286046998.2,N
1504925896.0,286046998.2,N
1504925915.8,286047000.0,N
1504925935.7,286047002.4,N
1504925955.5,286046999.9,N
1504925975.3,286047006.9,P
1504925995.2,286047004.7,N
